logo tempoitalia

Diretta Meteo Debrecen, Ungherialunedì 31 agosto ore 06:45

Mappa
Sereno 17 °C Sereno 24 Ore: T.min 15 T.max 32
Ponente Nord Km/h 3.7 Punto di rugiada: 10 °C Umidità: 63% Visibilità: 10 Km
Il sole sorge alle: 05:51 Il sole tramonta alle: 19:16
31 Agosto 2026 06:45 tempo osservato: Sereno Sereno 17 63 1016 vento: Nord N 3.7
31 Agosto 2026 06:15 tempo osservato: Sereno Sereno 16 67 1016 vento: Nord N 1.8
31 Agosto 2026 05:45 tempo osservato: Sereno Sereno 15 72 1016 vento: Nord N 3.7
31 Agosto 2026 05:15 tempo osservato: Sereno Sereno 16 67 1016 vento: Nord N 3.7
31 Agosto 2026 04:45 tempo osservato: Sereno Sereno 16 67 1016 vento: Nord N 3.7
31 Agosto 2026 04:15 tempo osservato: Sereno Sereno 17 63 1016 vento: Nord N 0
31 Agosto 2026 03:45 tempo osservato: Sereno Sereno 17 63 1016 vento: Nord N 0
31 Agosto 2026 03:15 tempo osservato: Sereno Sereno 17 59 1016 vento: Nord N 3.7
31 Agosto 2026 02:45 tempo osservato: Sereno Sereno 17 59 1016 vento: Nord N 3.7
31 Agosto 2026 02:15 tempo osservato: Sereno Sereno 17 63 1016 vento: Nord N 1.8
31 Agosto 2026 01:45 tempo osservato: Sereno Sereno 16 67 1016 vento: Nord N 3.7
31 Agosto 2026 01:15 tempo osservato: Sereno Sereno 17 67 1016 vento: Nord N 0
31 Agosto 2026 00:45 tempo osservato: Sereno Sereno 18 59 1016 vento: Nord N 0
31 Agosto 2026 00:15 tempo osservato: Sereno Sereno 18 63 1016 vento: Nord N 0
30 Agosto 2026 23:45 tempo osservato: Sereno Sereno 19 59 1016 vento: Nord N 0
30 Agosto 2026 23:15 tempo osservato: Sereno Sereno 19 59 1016 vento: Nord N 0
30 Agosto 2026 22:45 tempo osservato: Sereno Sereno 20 56 1016 vento: Nord N 0
30 Agosto 2026 22:15 tempo osservato: Sereno Sereno 20 56 1016 vento: Nord N 0
30 Agosto 2026 21:45 tempo osservato: Sereno Sereno 21 49 1016 vento: Nord N 1.8
30 Agosto 2026 21:15 tempo osservato: Sereno Sereno 22 46 1016 vento: Nord N 0
30 Agosto 2026 20:45 tempo osservato: Sereno Sereno 23 43 1016 vento: Nord N 1.8
30 Agosto 2026 20:15 tempo osservato: Sereno Sereno 24 41 1015 vento: Nord N 3.7
30 Agosto 2026 19:45 tempo osservato: Sereno Sereno 27 32 1015 vento: Nord N 1.8
30 Agosto 2026 19:15 tempo osservato: Sereno Sereno 28 30 1015 vento: Nord N 3.7
30 Agosto 2026 18:45 tempo osservato: Sereno Sereno 30 27 1015 vento: Nord N 5.5
30 Agosto 2026 18:15 tempo osservato: Sereno Sereno 31 25 1015 vento: Nord O/NO 9.3
30 Agosto 2026 17:45 tempo osservato: Sereno Sereno 31 25 1015 vento: Nord O 16.7
30 Agosto 2026 17:15 tempo osservato: Sereno Sereno 31 25 1015 vento: Nord O/NO 16.7
30 Agosto 2026 16:45 tempo osservato: Sereno Sereno 32 24 1015 vento: Nord O/NO 14.8
30 Agosto 2026 16:15 tempo osservato: Sereno Sereno 32 25 1015 vento: Nord O 14.8
30 Agosto 2026 15:45 tempo osservato: Sereno Sereno 31 25 1015 vento: Nord N 13
30 Agosto 2026 15:15 tempo osservato: Sereno Sereno 32 24 1015 vento: Nord O 14.8
30 Agosto 2026 14:45 tempo osservato: Sereno Sereno 31 25 1015 vento: Nord O 13
30 Agosto 2026 14:15 tempo osservato: Sereno Sereno 31 27 1016 vento: Nord O 13
30 Agosto 2026 13:45 tempo osservato: Sereno Sereno 30 30 1016 vento: Nord O 13
30 Agosto 2026 13:15 tempo osservato: Sereno Sereno 30 33 1016 vento: Nord SO 13
30 Agosto 2026 12:45 tempo osservato: Sereno Sereno 29 37 1016 vento: Nord O/SO 9.3
30 Agosto 2026 12:15 tempo osservato: Sereno Sereno 28 39 1016 vento: Nord O 13
30 Agosto 2026 11:45 tempo osservato: Sereno Sereno 28 37 1017 vento: Nord N 7.4
30 Agosto 2026 11:15 tempo osservato: Sereno Sereno 27 39 1017 vento: Nord O 7.4
30 Agosto 2026 10:45 tempo osservato: Sereno Sereno 26 41 1017 vento: Nord O/SO 9.3
30 Agosto 2026 10:15 tempo osservato: Sereno Sereno 25 44 1017 vento: Nord SO 9.3
30 Agosto 2026 09:45 tempo osservato: Sereno Sereno 24 50 1017 vento: Nord S/SO 9.3
30 Agosto 2026 09:15 tempo osservato: Sereno Sereno 22 56 1016 vento: Nord S/SO 7.4
30 Agosto 2026 08:45 tempo osservato: Sereno Sereno 21 60 1016 vento: Nord S/SO 7.4
30 Agosto 2026 08:15 tempo osservato: Sereno Sereno 19 63 1016 vento: Nord N 5.5
30 Agosto 2026 07:45 tempo osservato: Sereno Sereno 18 63 1016 vento: Nord N 3.7